Location: Seattle
(47.6064°N, 122.3308°W)
Time: 01:08:53
(UTC-08:00)

Tiros 1 - Pass Details

Date: 29 November 2020
Orbit: 630 x 663 km, 48.4° (Epoch: 28 January)

Event Time Altitude Azimuth Distance (km) Brightness Sun altitude
Rises 18:41:10 0° 279° (W) 2,991 11.8 -23.0°
Reaches altitude 10° 18:43:31 10° 280° (W) 2,075 10.7 -23.4°
Maximum altitude 18:48:20 87° 9° (N) 662 7.0 -24.2°
Enters shadow 18:48:30 83° 76° (ENE) 665 7.0 -24.2°
Drops below altitude 10° 18:53:05 10° 100° (E) 2,054 - -25.0°
Sets 18:55:24 0° 100° (E) 2,958 - -25.4°
